Back to catalog

KIKU 3

ETS 4

AliveScienceHEO
NORAD 12295·PAYLOAD·🇯🇵 Japan

Launched Feb 11, 1981 from Tanegashima Space Center

Loading…

Next Passes (next 24 hours)

TLE

FreshSource: Space-Track

Epoch: Sep 14, 2026, 01:12 UTC

1 12295U 81012A   26257.05031152  .00008167  00000-0  10495-2 0  9993
2 12295  28.4244 183.0590 4708975 304.3719  19.6335  6.12591159646639

Track KIKU 3 in real time with AllMySat

Download on the App Store